CW6668 Weather Reports


Display with metric or nautical units.
time (UTC)temp
F
wind
direction
speed
MPH
gust
MPH
rain 1hr
in
rain 24hr
in
rain mn
in
humidity
%
barometer
mb
20260504184600 74 199 7.0 15.0 0.00 0.00 0.00 35 1011.5
20260504183048 74 241 5.0 14.0 0.00 0.00 0.00 37 1011.8
20260504181545 73 226 8.0 18.0 0.00 0.00 0.00 36 1012.0
20260504180043 73 192 3.0 12.0 0.00 0.00 0.00 35 1012.3
20260504174540 72 293 4.0 14.0 0.00 0.00 0.00 37 1012.5
20260504173039 71 254 5.0 12.0 0.00 0.00 0.00 38 1012.6
20260504171540 71 282 3.0 14.0 0.00 0.00 0.00 35 1012.9
20260504140105 62 207 2.0 10.0 0.00 0.00 0.00 44 1014.5
20260504081650 45 78 0.0 3.0 0.00 0.00 0.00 78 1015.7
20260504044533 43 256 1.0 2.0 0.00 0.00 0.00 74 1016.4
20260504043028 44 256 0.0 3.0 0.00 0.00 0.00 70 1016.2
20260504041526 44 256 0.0 1.0 0.00 0.00 0.00 72 1016.2
20260504040027 44 256 0.0 3.0 0.00 0.00 0.00 69 1016.2
20260504034524 43 256 0.0 1.0 0.00 0.00 0.00 72 1016.2
20260504033024 44 256 0.0 1.0 0.00 0.00 0.00 73 1016.1
20260504031524 43 256 0.0 2.0 0.00 0.00 0.00 72 1016.0
20260504030024 45 256 0.0 1.0 0.00 0.00 0.00 68 1015.9
20260504024531 44 256 1.0 3.0 0.00 0.00 0.00 72 1015.7
20260504023022 44 256 0.0 1.0 0.00 0.00 0.00 72 1015.6
20260504021525 45 256 0.0 2.0 0.00 0.00 0.00 65 1015.6
20260504020021 47 256 0.0 0.0 0.00 0.00 0.00 58 1015.6
20260504014520 48 256 0.0 1.0 0.00 0.00 0.00 57 1015.4
20260504013032 48 256 0.0 1.0 0.00 0.00 0.00 56 1015.4
20260504011521 49 256 0.0 1.0 0.00 0.00 0.00 51 1015.3
20260504010020 50 256 0.0 0.0 0.00 0.00 0.00 50 1015.3
20260504004522 51 256 0.0 1.0 0.00 0.00 0.00 47 1015.2
20260504003034 52 256 0.0 2.0 0.00 0.00 0.00 45 1014.9
20260504001519 54 256 0.0 1.0 0.00 0.00 0.00 44 1015.0
20260504000019 55 89 1.0 2.0 0.00 0.00 0.00 39 1014.7
20260503234517 57 272 0.0 3.0 0.00 0.00 0.00 38 1014.7
20260503233016 58 254 1.0 4.0 0.00 0.00 0.00 36 1014.6
20260503231517 59 269 2.0 10.0 0.00 0.00 0.00 34 1014.5
20260503230020 60 242 3.0 8.0 0.00 0.00 0.00 31 1014.4
20260503224526 61 289 2.0 10.0 0.00 0.00 0.00 34 1014.4
20260503223014 62 261 7.0 15.0 0.00 0.00 0.00 31 1014.5
20260503221513 62 263 4.0 10.0 0.00 0.00 0.00 31 1014.5
20260503220020 62 153 5.0 11.0 0.00 0.00 0.00 32 1014.5
20260503214514 63 296 3.0 11.0 0.00 0.00 0.00 33 1014.6
20260503213011 63 317 1.0 9.0 0.00 0.00 0.00 33 1014.6
20260503211513 62 284 5.0 17.0 0.00 0.00 0.00 30 1014.7
20260503210012 62 260 5.0 15.0 0.00 0.00 0.00 34 1014.7
20260503204509 62 246 6.0 12.0 0.00 0.00 0.00 29 1014.9
20260503203009 62 261 3.0 14.0 0.00 0.00 0.00 35 1014.8
20260503201509 62 252 6.0 14.0 0.00 0.00 0.00 36 1015.0
20260503200008 62 273 6.0 16.0 0.00 0.00 0.00 35 1015.4
20260503194504 62 293 6.0 16.0 0.00 0.00 0.00 33 1015.4
20260503193004 61 290 7.0 21.0 0.00 0.00 0.00 31 1015.6
20260503191503 61 259 8.0 17.0 0.00 0.00 0.00 36 1016.0
20260503190003 61 249 8.0 18.0 0.00 0.00 0.00 33 1016.1